Terminal Aerodrome Forecast
Issued by NWS Jackson, MS

Home | Current Version | Previous Version | Text Only | Print | Product List | Glossary On
Versions: 1 2 3 4 5 6 7 8 9 10 11 12 13
318
FTUS44 KJAN 240537
TAFGWO
TAF
KGWO 240537Z 2406/2506 16003KT P6SM BKN250
     FM241100 00000KT 2SM BR BKN007
     FM241300 18003KT 5SM BR SCT015
     FM241400 21003KT P6SM SCT030
     FM241800 19004KT P6SM VCTS SCT050CB=

USA.gov is the U.S. government's official web portal to all federal, state and local government web resources and services.